Location: Newark
(34.1333°N, 7.9667°W)
Time: 17:03:32
(UTC+00:00)

AO-109 - Visible Passes

Search period start: 28 May 2023 00:00
Search period end: 07 June 2023 00:00
Orbit: 441 x 462 km, 60.7° (Epoch: 28 May)

Date Brightness Start Highest point End Pass type
(mag) Time Alt. Az. Time Alt. Az. Time Alt. Az.
28 May ? 02:50:52 10° N 02:53:40 22° NE 02:56:27 10° ESE visible
28 May ? 04:27:33 10° WNW 04:30:13 21° WSW 04:32:53 10° SSW visible
29 May ? 02:15:07 10° N 02:17:12 15° NE 02:19:17 10° E visible
29 May ? 03:50:47 10° NW 03:53:07 29° W 03:53:07 29° W visible
30 May ? 01:40:19 10° NE 01:40:39 10° NE 01:40:59 10° NE visible
30 May ? 03:14:13 10° NW 03:14:58 16° NW 03:14:58 16° NW visible
31 May ? 02:37:46 10° NNW 02:38:01 12° NNW 02:38:01 12° NNW visible
01 Jun ? 02:01:25 10° NNW 02:01:31 11° NNW 02:01:31 11° NNW visible
02 Jun ? 01:25:10 10° N 01:25:16 10° N 01:25:16 10° N visible
03 Jun ? 00:49:05 10° N 00:49:08 10° N 00:49:08 10° N visible
